Weather History for KMKL - October, 2012

Change the Weather History Date:

Tuesday, October 9, 2012

  Actual Average Record
Temperature  
Mean Temperature 52 °F 63 °F  
Max Temperature 66 °F 76 °F 89 °F (1980)
Min Temperature 37 °F 50 °F 28 °F (2000)
Degree Days  
Heating Degree Days 13 4  
Month to date heating degree days 70 32  
Since 1 July heating degree days 100 58  
Cooling Degree Days 0 2  
Month to date cooling degree days 2 23  
Year to date cooling degree days 1902 1666  
Growing Degree Days 2 (Base 50)    
Moisture  
Dew Point 43 °F    
Average Humidity 73    
Maximum Humidity 100    
Minimum Humidity 45    
Precipitation  
Precipitation T in 0.13 in 2.39 in (1999)
Month to date precipitation 1.97 1.11  
Year to date precipitation 33.07 40.36  
Snow  
Snow 0.00 in 0.00 in 0.00 in (2002)
Month to date snowfall 0.0 0.0  
Since 1 July snowfall 0.0 0.0  
Since 1 September snowfall 0.0 0.0  
Snow Depth 0.00 in    
Sea Level Pressure  
Sea Level Pressure 30.09 in    
Wind  
Wind Speed 3 mph (SSW)    
Max Wind Speed 12 mph    
Max Gust Speed 17 mph    
Visibility 10 miles    
Events      
T = Trace of Precipitation, MM = Missing Value Source: NWS Daily Summary

Daily Weather History Graph

Daily Weather History Graph

Search for Another Location

Airport or City:

Trip Planner

Search our weather history database for the weather conditions in past years. The results will help you decide how hot, cold, wet, or windy it might be!

Date:

Astronomy

Oct. 09, 2012 Rise Set
Actual Time 6:57 AM CDT 6:27 PM CDT
Civil Twilight 6:31 AM CDT 6:53 PM CDT
Nautical Twilight 6:02 AM CDT 7:22 PM CDT
Astronomical Twilight 5:32 AM CDT 7:52 PM CDT
Moon 12:46 AM CDT (10/9) 2:43 PM CDT (10/9)
Length of Visible Light 12h 21m
Length of Day
11h 30m
Last Quarter, 36% of the Moon is Illuminated
Oct 9
Last Quarter
Oct 15
New
Oct 21
First Quarter
Oct 29
Full
Nov 6
Last Quarter

Hourly Weather History & Observations

Time (CDT) Temp. Dew Point Humidity Pressure Visibility Wind Dir Wind Speed Gust Speed Precip Events Conditions
12:53 AM 39.0 °F 37.0 °F 93% 30.14 in 8.0 mi Calm Calm - N/A   Clear
1:53 AM 39.0 °F 37.9 °F 96% 30.15 in 10.0 mi Calm Calm - N/A   Clear
3:53 AM 37.9 °F 36.0 °F 93% 30.14 in 9.0 mi Calm Calm - N/A   Clear
4:53 AM 37.0 °F 36.0 °F 96% 30.14 in 8.0 mi Calm Calm - N/A   Clear
5:53 AM 37.9 °F 36.0 °F 93% 30.15 in 10.0 mi Calm Calm - N/A   Clear
6:53 AM 37.9 °F 37.0 °F 97% 30.16 in 10.0 mi Calm Calm - N/A   Clear
7:53 AM 39.9 °F 37.9 °F 93% 30.17 in 10.0 mi Calm Calm - N/A   Clear
8:53 AM 48.9 °F 45.0 °F 86% 30.17 in 10.0 mi Calm Calm - N/A   Clear
9:53 AM 55.9 °F 44.1 °F 64% 30.17 in 10.0 mi South 4.6 mph - N/A   Clear
10:53 AM 59.0 °F 42.1 °F 53% 30.16 in 10.0 mi SSE 6.9 mph - N/A   Clear
11:53 AM 61.0 °F 44.1 °F 54% 30.14 in 10.0 mi SW 8.1 mph - N/A   Partly Cloudy
12:53 PM 63.0 °F 43.0 °F 48% 30.11 in 10.0 mi SW 9.2 mph - N/A   Clear
1:53 PM 63.0 °F 44.1 °F 50% 30.07 in 10.0 mi SSE 8.1 mph - N/A   Clear
2:53 PM 64.9 °F 45.0 °F 48% 30.05 in 10.0 mi SSW 6.9 mph - N/A   Clear
3:53 PM 66.0 °F 45.0 °F 47% 30.03 in 10.0 mi WSW 8.1 mph - N/A   Clear
4:53 PM 64.9 °F 46.0 °F 50% 30.01 in 10.0 mi South 4.6 mph - N/A   Clear
5:53 PM 62.1 °F 46.0 °F 56% 30.00 in 10.0 mi South 4.6 mph - N/A   Clear
6:53 PM 55.9 °F 48.0 °F 75% 30.01 in 10.0 mi Calm Calm - N/A   Clear
7:53 PM 52.0 °F 48.0 °F 86% 30.03 in 10.0 mi Calm Calm - N/A   Clear
8:53 PM 51.1 °F 46.9 °F 86% 30.02 in 10.0 mi South 3.5 mph - N/A   Clear
9:53 PM 52.0 °F 48.0 °F 86% 30.03 in 10.0 mi Calm Calm - N/A   Clear
10:53 PM 55.0 °F 50.0 °F 83% 30.05 in 10.0 mi Calm Calm - N/A   Overcast
11:53 PM 55.0 °F 51.1 °F 86% 30.06 in 10.0 mi SSW 3.5 mph - 0.00 in   Overcast